Weather in Masaka

Uganda     0°20′35″N   31°44′11″E
temp.,
°C
wind,
m/s
gust,
m/s
humid.,
%
clouds,
%
prec.,
mm/h
press.,
hPa
HPBL,
m
28 february, sun
sun2800:00+19w23820 0.0 101051
03:00+21ene236738 0.0 100982
06:00+21s116583 0.0 101024
09:00+24sse335442 0.0 1012340
12:00+31ne243030 0.0 10102574
15:00+31ese653363 0.0 10071775
18:00+27se554763 0.0 1006747
21:00+21sse237842 0.0 100844
1 march, mon
mon100:00+20ssw127465 0.0 100923
03:00+19nw237479 0.0 100832
06:00+18n117747 0.0 100923
09:00+24sw115559 0.0 1012268
12:00+31se443477 0.0 10102198
15:00+31ese543179 0.0 10062065
18:00+28se544443 0.0 1005754
21:00+21s477328 0.0 1008137
2 march, tue
tue200:00+21ssw23580 0.0 100940
03:00+21sse005630 0.0 100923
06:00+21e346381 0.0 1010131
09:00+25s355591 0.0 1012405
12:00+31sse333294 0.0 10102256
15:00+29se543894 0.0 10071290
18:00+27se454870 0.0 1006577
21:00+21s468062 0.0 1008128
3 march, wed
wed300:00+20ssw35720 0.0 1009115
03:00+19sw127935 0.0 100951
06:00+19ssw128367 0.1 101024
09:00+23ssw576383 0.3 1012448
12:00+30sse4236100 0.1 10111864
15:00+30se633886 0.1 10071779
18:00+27se4450100 0.1 1007704
21:00+21ssw337687 0.1 100957
4 march, thu
thu400:00+19wsw37800 0.0 1010149
03:00+18w12798 0.0 100924
06:00+17se128126 0.0 101023
09:00+24s346163 0.0 1011386
12:00+31se4334100 0.0 10102137
15:00+30se5436100 0.2 10061557
18:00+26se565397 0.2 1006579
21:00+21sse238067 0.2 100729